Location: Calberlah
(52.4230°N, 10.6240°E)
Time: 18:43:12
(UTC+00:00)

Cosmos 2322 Rocket - Pass Details

Date: 19 May 2025
Orbit: 832 x 849 km, 71.0° (Epoch: 19 June)

Event Time Altitude Azimuth Distance (km) Brightness Sun altitude
Rises 21:04:43 0° 329° (NNW) 3,421 7.5 -12.3°
Reaches altitude 10° 21:07:33 10° 341° (NNW) 2,480 6.1 -12.6°
Maximum altitude 21:12:24 28° 39° (NE) 1,547 3.8 -12.9°
Drops below altitude 10° 21:17:12 10° 98° (E) 2,460 4.3 -13.3°
Enters shadow 21:18:22 - 104° (ESE) 2,836 4.6 -13.4°
